Regional Weather Roundup
Issued by NWS

Home | Current Version | Previous Version | Text Only | Print | Product List | Glossary On
Versions: 1 2 3 4 5 6 7 8 9 10 11 12 13 14 15 16 17 18 19 20 21 22 23 24 25 26 27 28 29 30 31 32 33 34 35 36 37 38 39 40 41 42 43 44 45 46 47 48 49 50
000
ASUS43 KLSX 251407
RWRMO

WEATHER SUMMARY FOR MISSOURI
NATIONAL WEATHER SERVICE SPRINGFIELD MO
900 AM CDT THU MAY 25 2017

NOTE: "FAIR" INDICATES FEW OR NO CLOUDS BELOW 12,000 FEET WITH NO
       SIGNIFICANT WEATHER AND/OR OBSTRUCTIONS TO VISIBILITY.
       CURRENT SKY AND/OR WEATHER CONDITIONS ARE NOT AVAILABLE FOR
       CHILLICOTHE AND FARMINGTON.

MOZ001>031-035>038-043-044-053-054-251500-
...NORTHERN AND WESTERN MISSOURI...

CITY           SKY/WX    TMP DP  RH WIND       PRES   REMARKS
KANSAS CTY INT SUNNY     61  52  72 S10       29.71S
KANSAS C DTWN  SUNNY     64  53  67 S7        29.72
LEE`S SUMMIT   SUNNY     62  52  69 S10       29.73S
ST JOSEPH      SUNNY     60  53  77 SW5       29.71R
CHILLICOTHE      N/A     61  53  75 CALM      29.73F
KIRKSVILLE     SUNNY     60  51  72 CALM      29.74R

$$
MOZ066>068-077>081-088>096-101>105-251500-
...SOUTHWEST MISSOURI...

CITY           SKY/WX    TMP DP  RH WIND       PRES   REMARKS
SPRINGFIELD    SUNNY     60  52  74 S7        29.78R
JOPLIN         SUNNY     64  53  67 S7        29.76R
BRANSON        SUNNY     59  52  77 SW6       29.80R

$$
MOZ032>034-039>042-045>050-055>058-069>072-251500-
...CENTRAL MISSOURI...

CITY           SKY/WX    TMP DP  RH WIND       PRES   REMARKS
COLUMBIA       SUNNY     61  53  75 W3        29.74S
JEFFERSON CITY SUNNY     61  52  72 CALM      29.75R
ROLLA          SUNNY     58  53  84 W3        29.75R
SEDALIA        SUNNY     61  55  81 SW6       29.75S
WHITEMAN AFB   SUNNY     60  60 100 SW9       29.74R
WARRENSBURG    SUNNY     59  54  82 S3        29.74R

$$
MOZ051-052-059>065-251500-
...EAST CENTRAL MISSOURI...

CITY           SKY/WX    TMP DP  RH WIND       PRES   REMARKS
ST LOUIS INTL  MOSUNNY   64  53  67 NW9       29.72R
SPIRIT OF STL  MOSUNNY   62  54  74 NW6       29.72R
ST CHARLES     SUNNY     62  54  74 W13       29.71R

$$
MOZ072>076-082>087-097>100-106>115-251500-
...SOUTH CENTRAL AND SOUTHEAST MISSOURI...

CITY           SKY/WX    TMP DP  RH WIND       PRES   REMARKS
CAPE GIRARDEAU SUNNY     63  52  67 NW12      29.73R
FARMINGTON     SUNNY     60  52  74 W7        29.75R
POPLAR BLUFF   SUNNY     62  53  72 W5        29.76R
WEST PLAINS    SUNNY     60  51  72 W6        29.80R

$$



USA.gov is the U.S. government's official web portal to all federal, state and local government web resources and services.